Location: ???????
(54.6339°N, 39.4245°E)
Time: 05:00:12
(UTC+00:00)

Nadezhda 3 Rocket - Pass Details

Date: 19 May 2025
Orbit: 957 x 997 km, 82.9° (Epoch: 19 June)

Event Time Altitude Azimuth Distance (km) Brightness Sun altitude
Exits shadow 19:37:19 15° 170° (S) 2,334 5.4 -12.3°
Maximum altitude 19:42:23 62° 94° (E) 1,091 4.1 -12.6°
Drops below altitude 10° 19:48:33 10° 16° (NNE) 2,741 7.2 -12.9°
Sets 19:51:06 0° 13° (NNE) 3,699 8.0 -13.1°
